Time,TemperatureF,DewpointF,PressureIn,WindDirection,WindDirectionDegrees,WindSpeedMPH,WindSpeedGustMPH,Humidity,HourlyPrecipIn,Conditions,Clouds,dailyrainin,SoftwareType,DateUTC
2013-05-09 00:00:00,63.5,62.0,30.07,SSE,158,0.0,0.0,95,0.00,,,0.00,weatherlink.com 1.10,2013-05-09 05:00:00,
2013-05-09 00:15:00,62.9,62.0,30.07,South,175,0.0,0.0,95,0.00,,,0.00,weatherlink.com 1.10,2013-05-09 05:15:00,
2013-05-09 00:30:00,62.1,61.0,30.07,South,173,0.0,0.0,95,0.00,,,0.00,weatherlink.com 1.10,2013-05-09 05:30:00,
2013-05-09 00:45:00,61.6,61.0,30.06,South,173,0.0,0.0,96,0.00,,,0.00,weatherlink.com 1.10,2013-05-09 05:45:00,
2013-05-09 01:00:00,61.0,60.0,30.06,South,173,0.0,0.0,96,0.00,,,0.00,weatherlink.com 1.10,2013-05-09 06:00:00,
2013-05-09 01:15:00,60.5,59.0,30.06,South,173,0.0,0.0,96,0.00,,,0.00,weatherlink.com 1.10,2013-05-09 06:15:00,
2013-05-09 01:30:00,60.6,60.0,30.05,South,173,0.0,0.0,96,0.00,,,0.00,weatherlink.com 1.10,2013-05-09 06:30:00,
2013-05-09 01:45:00,61.2,60.0,30.05,SSE,158,0.0,3.0,96,0.00,,,0.00,weatherlink.com 1.10,2013-05-09 06:45:00,
2013-05-09 02:00:00,61.6,61.0,30.04,SSW,210,0.0,0.0,96,0.00,,,0.00,weatherlink.com 1.10,2013-05-09 07:00:00,
2013-05-09 02:15:00,61.9,61.0,30.04,SSE,150,0.0,1.0,96,0.00,,,0.00,weatherlink.com 1.10,2013-05-09 07:15:00,
2013-05-09 02:30:00,62.2,61.0,30.04,South,173,0.0,0.0,96,0.00,,,0.00,weatherlink.com 1.10,2013-05-09 07:30:00,
2013-05-09 02:45:00,62.2,61.0,30.04,SSW,197,0.0,0.0,96,0.00,,,0.00,weatherlink.com 1.10,2013-05-09 07:45:00,
2013-05-09 03:00:00,61.8,61.0,30.04,SSW,197,0.0,0.0,97,0.00,,,0.00,weatherlink.com 1.10,2013-05-09 08:00:00,
2013-05-09 03:15:00,61.5,61.0,30.04,SSW,197,0.0,0.0,97,0.00,,,0.00,weatherlink.com 1.10,2013-05-09 08:15:00,
2013-05-09 03:30:00,61.1,60.0,30.04,SSW,197,0.0,0.0,97,0.00,,,0.00,weatherlink.com 1.10,2013-05-09 08:30:00,
2013-05-09 03:45:00,60.6,60.0,30.05,SSW,197,0.0,0.0,97,0.00,,,0.00,weatherlink.com 1.10,2013-05-09 08:45:00,
2013-05-09 04:00:00,60.1,59.0,30.05,SSW,197,0.0,0.0,97,0.00,,,0.00,weatherlink.com 1.10,2013-05-09 09:00:00,
2013-05-09 04:15:00,59.7,59.0,30.05,SSW,197,0.0,0.0,97,0.00,,,0.00,weatherlink.com 1.10,2013-05-09 09:15:00,
2013-05-09 04:30:00,59.1,58.0,30.05,SSW,197,0.0,0.0,97,0.00,,,0.00,weatherlink.com 1.10,2013-05-09 09:30:00,
2013-05-09 04:45:00,58.5,58.0,30.05,SSW,197,0.0,0.0,97,0.00,,,0.00,weatherlink.com 1.10,2013-05-09 09:45:00,
2013-05-09 05:00:00,58.0,57.0,30.06,SSW,197,0.0,0.0,97,0.00,,,0.00,weatherlink.com 1.10,2013-05-09 10:00:00,
2013-05-09 05:15:00,57.8,57.0,30.06,SSW,197,0.0,0.0,97,0.00,,,0.00,weatherlink.com 1.10,2013-05-09 10:15:00,
2013-05-09 05:31:00,57.4,57.0,30.06,SSW,198,0.0,0.0,97,0.00,,,0.00,weatherlink.com 1.10,2013-05-09 10:31:00,
2013-05-09 05:46:00,57.0,56.0,30.07,SSW,197,0.0,0.0,97,0.00,,,0.00,weatherlink.com 1.10,2013-05-09 10:46:00,
2013-05-09 06:01:00,56.9,56.0,30.07,SSW,197,0.0,0.0,97,0.00,,,0.00,weatherlink.com 1.10,2013-05-09 11:01:00,
2013-05-09 06:16:00,56.9,56.0,30.08,SSW,197,0.0,0.0,97,0.00,,,0.00,weatherlink.com 1.10,2013-05-09 11:16:00,
2013-05-09 06:31:00,57.0,56.0,30.08,SSW,197,0.0,0.0,97,0.00,,,0.00,weatherlink.com 1.10,2013-05-09 11:31:00,
2013-05-09 06:46:00,58.2,57.0,30.08,SSW,197,0.0,0.0,97,0.00,,,0.00,weatherlink.com 1.10,2013-05-09 11:46:00,
2013-05-09 07:01:00,60.7,60.0,30.08,SSW,197,0.0,0.0,97,0.00,,,0.00,weatherlink.com 1.10,2013-05-09 12:01:00,
2013-05-09 07:16:00,63.0,62.0,30.09,SSW,208,0.0,1.0,97,0.00,,,0.00,weatherlink.com 1.10,2013-05-09 12:16:00,
2013-05-09 07:31:00,63.4,63.0,30.10,SE,136,0.0,2.0,97,0.00,,,0.00,weatherlink.com 1.10,2013-05-09 12:31:00,
2013-05-09 07:46:00,64.7,63.0,30.10,SE,143,0.0,1.0,95,0.00,,,0.00,weatherlink.com 1.10,2013-05-09 12:46:00,
2013-05-09 08:01:00,68.0,66.0,30.11,SW,232,0.0,0.0,93,0.00,,,0.00,weatherlink.com 1.10,2013-05-09 13:01:00,
2013-05-09 08:16:00,68.8,66.0,30.11,SSW,203,0.0,2.0,89,0.00,,,0.00,weatherlink.com 1.10,2013-05-09 13:16:00,
2013-05-09 08:31:00,69.5,66.0,30.12,SW,214,1.0,3.0,87,0.00,,,0.00,weatherlink.com 1.10,2013-05-09 13:31:00,
2013-05-09 08:46:00,70.1,66.0,30.12,SSE,160,0.0,3.0,86,0.00,,,0.00,weatherlink.com 1.10,2013-05-09 13:46:00,
2013-05-09 09:01:00,72.0,67.0,30.11,NW,319,0.0,2.0,83,0.00,,,0.00,weatherlink.com 1.10,2013-05-09 14:01:00,
2013-05-09 09:16:00,72.3,67.0,30.11,SW,230,0.0,4.0,82,0.00,,,0.00,weatherlink.com 1.10,2013-05-09 14:16:00,
2013-05-09 09:31:00,73.9,67.0,30.12,North,4,1.0,2.0,78,0.00,,,0.00,weatherlink.com 1.10,2013-05-09 14:31:00,
2013-05-09 09:46:00,74.9,67.0,30.11,West,266,0.0,2.0,77,0.00,,,0.00,weatherlink.com 1.10,2013-05-09 14:46:00,
2013-05-09 10:01:00,75.7,67.0,30.12,SSE,165,0.0,3.0,75,0.00,,,0.00,weatherlink.com 1.10,2013-05-09 15:01:00,
2013-05-09 10:16:00,76.5,67.0,30.12,SSE,163,1.0,5.0,73,0.00,,,0.00,weatherlink.com 1.10,2013-05-09 15:16:00,
2013-05-09 10:31:00,78.3,68.0,30.12,SW,233,0.0,3.0,70,0.00,,,0.00,weatherlink.com 1.10,2013-05-09 15:31:00,
2013-05-09 10:46:00,79.7,68.0,30.12,SW,235,2.0,5.0,67,0.00,,,0.00,weatherlink.com 1.10,2013-05-09 15:46:00,
2013-05-09 11:01:00,79.4,66.0,30.12,NNE,30,0.0,5.0,64,0.00,,,0.00,weatherlink.com 1.10,2013-05-09 16:01:00,
2013-05-09 11:16:00,80.7,67.0,30.11,ENE,75,3.0,6.0,63,0.00,,,0.00,weatherlink.com 1.10,2013-05-09 16:16:00,
2013-05-09 11:31:00,80.6,65.0,30.11,SW,235,0.0,6.0,59,0.00,,,0.00,weatherlink.com 1.10,2013-05-09 16:31:00,
2013-05-09 11:48:00,82.6,64.0,30.11,NE,56,2.0,5.0,54,0.00,,,0.00,weatherlink.com 1.10,2013-05-09 16:48:00,
2013-05-09 12:02:00,82.1,67.0,30.11,South,189,0.0,5.0,60,0.00,,,0.00,weatherlink.com 1.10,2013-05-09 17:02:00,
2013-05-09 12:17:00,82.6,64.0,30.11,NNE,20,1.0,6.0,54,0.00,,,0.00,weatherlink.com 1.10,2013-05-09 17:17:00,
2013-05-09 12:32:00,83.2,64.0,30.11,NE,54,0.0,7.0,52,0.00,,,0.00,weatherlink.com 1.10,2013-05-09 17:32:00,
2013-05-09 12:47:00,82.8,65.0,30.11,South,190,2.0,6.0,55,0.00,,,0.00,weatherlink.com 1.10,2013-05-09 17:47:00,
2013-05-09 13:02:00,83.0,64.0,30.10,SW,225,5.0,7.0,53,0.00,,,0.00,weatherlink.com 1.10,2013-05-09 18:02:00,
2013-05-09 13:17:00,83.9,64.0,30.10,South,189,0.0,6.0,51,0.00,,,0.00,weatherlink.com 1.10,2013-05-09 18:17:00,
2013-05-09 13:32:00,85.4,64.0,30.10,SW,230,0.0,6.0,49,0.00,,,0.00,weatherlink.com 1.10,2013-05-09 18:32:00,
2013-05-09 13:47:00,84.8,65.0,30.09,SSE,166,1.0,3.0,52,0.00,,,0.00,weatherlink.com 1.10,2013-05-09 18:47:00,
2013-05-09 14:02:00,85.6,65.0,30.09,West,259,1.0,5.0,51,0.00,,,0.00,weatherlink.com 1.10,2013-05-09 19:02:00,
2013-05-09 14:17:00,86.3,63.0,30.08,East,82,3.0,3.0,46,0.00,,,0.00,weatherlink.com 1.10,2013-05-09 19:17:00,
2013-05-09 14:32:00,85.8,63.0,30.08,SSW,204,1.0,6.0,46,0.00,,,0.00,weatherlink.com 1.10,2013-05-09 19:32:00,
2013-05-09 14:47:00,85.6,62.0,30.07,NE,53,0.0,5.0,46,0.00,,,0.00,weatherlink.com 1.10,2013-05-09 19:47:00,
2013-05-09 15:02:00,86.0,64.0,30.06,SSE,163,1.0,4.0,48,0.00,,,0.00,weatherlink.com 1.10,2013-05-09 20:02:00,
2013-05-09 15:17:00,85.4,62.0,30.06,SE,138,4.0,4.0,46,0.00,,,0.00,weatherlink.com 1.10,2013-05-09 20:17:00,
2013-05-09 15:32:00,84.7,62.0,30.05,ENE,73,1.0,3.0,47,0.00,,,0.00,weatherlink.com 1.10,2013-05-09 20:32:00,
2013-05-09 15:47:00,83.4,62.0,30.05,WSW,249,1.0,5.0,49,0.00,,,0.00,weatherlink.com 1.10,2013-05-09 20:47:00,
2013-05-09 16:02:00,84.1,62.0,30.04,East,95,0.0,1.0,48,0.00,,,0.00,weatherlink.com 1.10,2013-05-09 21:02:00,
2013-05-09 16:17:00,84.6,63.0,30.04,North,1,0.0,3.0,48,0.00,,,0.00,weatherlink.com 1.10,2013-05-09 21:17:00,
2013-05-09 16:32:00,86.3,62.0,30.04,SSW,197,1.0,5.0,44,0.00,,,0.00,weatherlink.com 1.10,2013-05-09 21:32:00,
2013-05-09 16:47:00,86.0,63.0,30.04,West,268,1.0,4.0,46,0.00,,,0.00,weatherlink.com 1.10,2013-05-09 21:47:00,
2013-05-09 17:02:00,85.9,62.0,30.04,NE,35,0.0,4.0,45,0.00,,,0.00,weatherlink.com 1.10,2013-05-09 22:02:00,
2013-05-09 17:17:00,85.6,62.0,30.03,ESE,110,0.0,4.0,45,0.00,,,0.00,weatherlink.com 1.10,2013-05-09 22:17:00,
2013-05-09 17:32:00,84.7,63.0,30.03,SSW,194,0.0,3.0,48,0.00,,,0.00,weatherlink.com 1.10,2013-05-09 22:32:00,
2013-05-09 17:47:00,85.0,62.0,30.03,SW,221,0.0,3.0,46,0.00,,,0.00,weatherlink.com 1.10,2013-05-09 22:47:00,
2013-05-09 18:02:00,84.0,62.0,30.03,South,186,0.0,1.0,48,0.00,,,0.00,weatherlink.com 1.10,2013-05-09 23:02:00,
2013-05-09 18:17:00,81.9,65.0,30.03,SSE,148,2.0,6.0,56,0.00,,,0.00,weatherlink.com 1.10,2013-05-09 23:17:00,
2013-05-09 18:32:00,79.7,64.0,30.03,SW,232,0.0,5.0,60,0.00,,,0.00,weatherlink.com 1.10,2013-05-09 23:32:00,
2013-05-09 18:47:00,78.4,65.0,30.03,SSW,193,2.0,5.0,63,0.00,,,0.00,weatherlink.com 1.10,2013-05-09 23:47:00,
2013-05-09 19:02:00,77.3,65.0,30.03,South,190,0.0,3.0,65,0.00,,,0.00,weatherlink.com 1.10,2013-05-10 00:02:00,
2013-05-09 19:17:00,75.9,64.0,30.03,SSE,150,0.0,5.0,67,0.00,,,0.00,weatherlink.com 1.10,2013-05-10 00:17:00,
2013-05-09 19:32:00,74.9,63.0,30.04,SSW,194,0.0,4.0,67,0.00,,,0.00,weatherlink.com 1.10,2013-05-10 00:32:00,
2013-05-09 19:47:00,73.9,63.0,30.05,ESE,112,0.0,4.0,68,0.00,,,0.00,weatherlink.com 1.10,2013-05-10 00:47:00,
2013-05-09 20:02:00,73.0,63.0,30.05,SSW,195,0.0,5.0,70,0.00,,,0.00,weatherlink.com 1.10,2013-05-10 01:02:00,
2013-05-09 20:17:00,72.4,62.0,30.06,SSE,160,0.0,9.0,70,0.00,,,0.00,weatherlink.com 1.10,2013-05-10 01:17:00,
2013-05-09 20:32:00,71.7,62.0,30.06,SE,140,0.0,3.0,71,0.00,,,0.00,weatherlink.com 1.10,2013-05-10 01:32:00,
2013-05-09 20:47:00,70.7,62.0,30.07,SSW,197,2.0,3.0,73,0.00,,,0.00,weatherlink.com 1.10,2013-05-10 01:47:00,
2013-05-09 21:02:00,70.0,61.0,30.07,SW,221,0.0,5.0,74,0.00,,,0.00,weatherlink.com 1.10,2013-05-10 02:02:00,
2013-05-09 21:17:00,69.5,62.0,30.08,SSE,158,0.0,2.0,76,0.00,,,0.00,weatherlink.com 1.10,2013-05-10 02:17:00,
2013-05-09 21:32:00,68.9,62.0,30.08,SW,231,0.0,5.0,78,0.00,,,0.00,weatherlink.com 1.10,2013-05-10 02:32:00,
2013-05-09 21:47:00,68.5,62.0,30.09,SSE,163,2.0,4.0,79,0.00,,,0.00,weatherlink.com 1.10,2013-05-10 02:47:00,
2013-05-09 22:02:00,68.1,62.0,30.08,SW,217,0.0,4.0,81,0.00,,,0.00,weatherlink.com 1.10,2013-05-10 03:02:00,
2013-05-09 22:17:00,67.5,62.0,30.08,SSE,167,0.0,1.0,83,0.00,,,0.00,weatherlink.com 1.10,2013-05-10 03:17:00,
2013-05-09 22:32:00,66.7,62.0,30.08,SSW,198,0.0,1.0,85,0.00,,,0.00,weatherlink.com 1.10,2013-05-10 03:32:00,
2013-05-09 22:47:00,66.1,62.0,30.08,SSE,165,0.0,0.0,86,0.00,,,0.00,weatherlink.com 1.10,2013-05-10 03:47:00,
2013-05-09 23:02:00,65.1,62.0,30.08,SSE,159,0.0,1.0,88,0.00,,,0.00,weatherlink.com 1.10,2013-05-10 04:02:00,
2013-05-09 23:17:00,63.8,61.0,30.09,SSE,160,0.0,0.0,90,0.00,,,0.00,weatherlink.com 1.10,2013-05-10 04:17:00,
2013-05-09 23:32:00,63.0,61.0,30.08,SSE,160,0.0,0.0,92,0.00,,,0.00,weatherlink.com 1.10,2013-05-10 04:32:00,
2013-05-09 23:47:00,62.3,60.0,30.08,SSE,160,0.0,0.0,93,0.00,,,0.00,weatherlink.com 1.10,2013-05-10 04:47:00,